Versailles, OH

9:30 AM EDT on July 24, 2017 (GMT -0400)
Darke County

Weather History for KVES - November, 2013

Change the Weather History Date:

Thursday, November 14, 2013

  Actual Average (KDAY) Record (KDAY)
Temperature  
Mean Temperature 40 °F -  
Max Temperature 51 °F 50 °F 76 °F (1909)
Min Temperature 30 °F 33 °F 11 °F (1986)
Degree Days  
Heating Degree Days 24    
Moisture  
Dew Point 21 °F    
Average Humidity 50    
Maximum Humidity 69    
Minimum Humidity 26    
Precipitation  
Precipitation 0.00 in - - ()
Sea Level Pressure  
Sea Level Pressure 30.20 in    
Wind  
Wind Speed 12 mph (SW)    
Max Wind Speed 20 mph    
Max Gust Speed 25 mph    
Visibility 10 miles    
Events      
Averages and records for this station are not official NWS values.
T = Trace of Precipitation, MM = Missing Value Source: NWS Daily Summary

Daily Weather History Graph

Daily Weather History Graph

Search for Another Location

Airport or City:

Trip Planner

Search our weather history database for the weather conditions in past years. The results will help you decide how hot, cold, wet, or windy it might be!

Date:

Astronomy

Nov. 14, 2013 Rise Set
Actual Time 7:22 AM EST 5:21 PM EST
Civil Twilight 6:53 AM EST 5:50 PM EST
Nautical Twilight 6:20 AM EST 6:23 PM EST
Astronomical Twilight 5:48 AM EST 6:55 PM EST
Moon 3:42 PM EST (11/14) 4:16 AM EST (11/14)
Length of Visible Light 10h 57m
Length of Day
9h 59m
Waxing Gibbous, 91% of the Moon is Illuminated
Nov 14
Waxing Gibbous
Nov 17
Full
Nov 25
Last Quarter
Dec 2
New
Dec 9
First Quarter

Hourly Weather History & Observations

Time (EST) Temp. Windchill Dew Point Humidity Pressure Visibility Wind Dir Wind Speed Gust Speed Precip Events Conditions
12:15 AM 32.0 °F 22.5 °F 21.2 °F 64% 30.32 in 10.0 mi SW 12.7 mph 18.4 mph N/A   Clear
12:35 AM 32.0 °F 23.6 °F 21.2 °F 64% 30.31 in 10.0 mi SW 10.4 mph - N/A   Clear
12:55 AM 32.0 °F 22.5 °F 21.2 °F 64% 30.31 in 10.0 mi SW 12.7 mph 16.1 mph N/A   Clear
1:15 AM 30.2 °F 20.2 °F 21.2 °F 69% 30.30 in 10.0 mi SW 12.7 mph 16.1 mph N/A   Clear
1:35 AM 32.0 °F 22.5 °F 21.2 °F 64% 30.29 in 10.0 mi SW 12.7 mph 17.3 mph N/A   Clear
1:55 AM 32.0 °F 23.0 °F 21.2 °F 64% 30.29 in 10.0 mi SW 11.5 mph 17.3 mph N/A   Clear
2:15 AM 32.0 °F 23.0 °F 21.2 °F 64% 30.29 in 10.0 mi SW 11.5 mph - N/A   Clear
2:35 AM 32.0 °F 22.5 °F 21.2 °F 64% 30.29 in 10.0 mi SW 12.7 mph - N/A   Clear
2:55 AM 32.0 °F 22.1 °F 21.2 °F 64% 30.29 in 10.0 mi SW 13.8 mph 18.4 mph N/A   Clear
3:15 AM 32.0 °F 23.6 °F 21.2 °F 64% 30.29 in 10.0 mi SW 10.4 mph 17.3 mph N/A   Clear
3:35 AM 32.0 °F 23.6 °F 21.2 °F 64% 30.29 in 10.0 mi SW 10.4 mph - N/A   Clear
3:55 AM 30.2 °F 21.9 °F 21.2 °F 69% 30.28 in 10.0 mi SW 9.2 mph - N/A   Clear
4:15 AM 30.2 °F 21.9 °F 21.2 °F 69% 30.28 in 10.0 mi SW 9.2 mph - N/A   Clear
4:35 AM 32.0 °F 24.2 °F 21.2 °F 64% 30.28 in 10.0 mi SW 9.2 mph - N/A   Clear
4:55 AM 30.2 °F 22.6 °F 21.2 °F 69% 30.27 in 10.0 mi SSW 8.1 mph - N/A   Clear
5:15 AM 30.2 °F 23.4 °F 21.2 °F 69% 30.27 in 10.0 mi SW 6.9 mph - N/A   Clear
5:35 AM 30.2 °F 22.6 °F 21.2 °F 69% 30.27 in 10.0 mi SW 8.1 mph - N/A   Clear
5:55 AM 30.2 °F 22.6 °F 21.2 °F 69% 30.27 in 10.0 mi SW 8.1 mph - N/A   Clear
6:15 AM 30.2 °F 22.6 °F 21.2 °F 69% 30.27 in 10.0 mi SSW 8.1 mph - N/A   Clear
6:35 AM 30.2 °F 21.3 °F 21.2 °F 69% 30.27 in 10.0 mi SW 10.4 mph - N/A   Clear
6:55 AM 30.2 °F 20.8 °F 21.2 °F 69% 30.27 in 10.0 mi SW 11.5 mph - N/A   Clear
7:15 AM 30.2 °F 21.3 °F 21.2 °F 69% 30.26 in 10.0 mi SW 10.4 mph - N/A   Clear
7:35 AM 30.2 °F 21.9 °F 21.2 °F 69% 30.26 in 10.0 mi SW 9.2 mph - N/A   Clear
7:55 AM 32.0 °F 23.6 °F 21.2 °F 64% 30.26 in 10.0 mi SSW 10.4 mph - N/A   Clear
8:15 AM 32.0 °F 22.5 °F 21.2 °F 64% 30.26 in 10.0 mi SW 12.7 mph 17.3 mph N/A   Clear
8:35 AM 33.8 °F 23.2 °F 21.2 °F 60% 30.26 in 10.0 mi SW 17.3 mph 21.9 mph N/A   Clear
8:55 AM 33.8 °F 24.3 °F 21.2 °F 60% 30.26 in 10.0 mi SW 13.8 mph 20.7 mph N/A   Clear
9:15 AM 35.6 °F 26.6 °F 23.0 °F 60% 30.25 in 10.0 mi SW 13.8 mph 20.7 mph N/A   Clear
9:35 AM 35.6 °F 25.5 °F 21.2 °F 56% 30.25 in 10.0 mi SW 17.3 mph 20.7 mph N/A   Clear
9:55 AM 37.4 °F 27.5 °F 21.2 °F 52% 30.25 in 10.0 mi SW 18.4 mph 24.2 mph N/A   Clear
10:15 AM 39.2 °F 30.2 °F 21.2 °F 49% 30.24 in 10.0 mi SW 17.3 mph 24.2 mph N/A   Clear
10:35 AM 41.0 °F 33.9 °F 21.2 °F 45% 30.24 in 10.0 mi SW 12.7 mph 21.9 mph N/A   Clear
10:55 AM 41.0 °F 32.2 °F 19.4 °F 42% 30.24 in 10.0 mi SW 18.4 mph 23.0 mph N/A   Clear
11:15 AM 42.8 °F 35.1 °F 19.4 °F 39% 30.23 in 10.0 mi SW 16.1 mph 21.9 mph N/A   Clear
11:35 AM 44.6 °F 36.6 °F 19.4 °F 37% 30.23 in 10.0 mi SW 19.6 mph 23.0 mph N/A   Clear
11:55 AM 44.6 °F 36.9 °F 19.4 °F 37% 30.21 in 10.0 mi SW 18.4 mph 23.0 mph N/A   Clear
12:15 PM 46.4 °F 39.2 °F 19.4 °F 34% 30.20 in 10.0 mi SW 18.4 mph 24.2 mph N/A   Clear
12:35 PM 46.4 °F 39.5 °F 19.4 °F 34% 30.19 in 10.0 mi SW 17.3 mph 23.0 mph N/A   Clear
12:55 PM 48.2 °F - 19.4 °F 32% 30.19 in 10.0 mi SW 16.1 mph 23.0 mph N/A   Clear
1:15 PM 50.0 °F - 19.4 °F 30% 30.17 in 10.0 mi WSW 17.3 mph 25.3 mph N/A   Clear
1:35 PM 50.0 °F - 19.4 °F 30% 30.16 in 10.0 mi SW 16.1 mph 20.7 mph N/A   Clear
1:55 PM 50.0 °F - 19.4 °F 30% 30.15 in 10.0 mi SW 15.0 mph 24.2 mph N/A   Clear
2:15 PM 50.0 °F - 17.6 °F 28% 30.15 in 10.0 mi SW 15.0 mph 25.3 mph N/A   Clear
2:35 PM 51.8 °F - 17.6 °F 26% 30.14 in 10.0 mi SW 15.0 mph 23.0 mph N/A   Clear
2:55 PM 51.8 °F - 19.4 °F 28% 30.14 in 10.0 mi SW 16.1 mph 23.0 mph N/A   Clear
3:15 PM 51.8 °F - 17.6 °F 26% 30.14 in 10.0 mi SSW 10.4 mph 16.1 mph N/A   Clear
3:35 PM 51.8 °F - 19.4 °F 28% 30.13 in 10.0 mi SW 16.1 mph 20.7 mph N/A   Clear
3:55 PM 51.8 °F - 19.4 °F 28% 30.12 in 10.0 mi SSW 13.8 mph 18.4 mph N/A   Clear
4:15 PM 50.0 °F - 19.4 °F 30% 30.12 in 10.0 mi SSW 12.7 mph 19.6 mph N/A   Clear
4:35 PM 50.0 °F - 19.4 °F 30% 30.12 in 10.0 mi SSW 10.4 mph 17.3 mph N/A   Clear
4:55 PM 46.4 °F 41.9 °F 19.4 °F 34% 30.11 in 10.0 mi SSW 9.2 mph 19.6 mph N/A   Clear
5:15 PM 46.4 °F 41.9 °F 21.2 °F 37% 30.10 in 10.0 mi South 9.2 mph - N/A   Clear
5:35 PM 44.6 °F 40.2 °F 21.2 °F 39% 30.11 in 10.0 mi South 8.1 mph - N/A   Clear
5:55 PM 44.6 °F 39.2 °F 21.2 °F 39% 30.12 in 10.0 mi SSW 10.4 mph - N/A   Clear
6:15 PM 44.6 °F 39.7 °F 21.2 °F 39% 30.12 in 10.0 mi SSW 9.2 mph - N/A   Clear
6:35 PM 42.8 °F 38.6 °F 21.2 °F 42% 30.11 in 10.0 mi South 6.9 mph - N/A   Clear
6:55 PM 42.8 °F 38.0 °F 21.2 °F 42% 30.12 in 10.0 mi SSW 8.1 mph - N/A   Clear
7:15 PM 41.0 °F 37.1 °F 21.2 °F 45% 30.11 in 10.0 mi South 5.8 mph - N/A   Clear
7:35 PM 41.0 °F 37.1 °F 21.2 °F 45% 30.11 in 10.0 mi SSW 5.8 mph - N/A   Clear
7:55 PM 41.0 °F 35.2 °F 21.2 °F 45% 30.11 in 10.0 mi SSW 9.2 mph - N/A   Clear
8:15 PM 41.0 °F 35.2 °F 21.2 °F 45% 30.11 in 10.0 mi SSW 9.2 mph - N/A   Clear
8:35 PM 39.2 °F 33.0 °F 23.0 °F 52% 30.12 in 10.0 mi SSW 9.2 mph - N/A   Clear
8:55 PM 39.2 °F 33.0 °F 23.0 °F 52% 30.11 in 10.0 mi South 9.2 mph - N/A   Clear
9:15 PM 39.2 °F 31.6 °F 23.0 °F 52% 30.11 in 10.0 mi SSW 12.7 mph 18.4 mph N/A   Clear
9:35 PM 39.2 °F 31.6 °F 23.0 °F 52% 30.11 in 10.0 mi SSW 12.7 mph 19.6 mph N/A   Clear
9:55 PM 41.0 °F 33.1 °F 21.2 °F 45% 30.11 in 10.0 mi SSW 15.0 mph 20.7 mph N/A   Clear
10:15 PM 41.0 °F 32.8 °F 21.2 °F 45% 30.11 in 10.0 mi SSW 16.1 mph 20.7 mph N/A   Clear
10:35 PM 41.0 °F 33.5 °F 21.2 °F 45% 30.11 in 10.0 mi SSW 13.8 mph 18.4 mph N/A   Clear
10:55 PM 41.0 °F 33.9 °F 21.2 °F 45% 30.11 in 10.0 mi SSW 12.7 mph 17.3 mph N/A   Clear
11:15 PM 41.0 °F 33.9 °F 21.2 °F 45% 30.10 in 10.0 mi SW 12.7 mph - N/A   Clear
11:35 PM 41.0 °F 33.5 °F 21.2 °F 45% 30.10 in 10.0 mi SSW 13.8 mph 20.7 mph N/A   Clear
11:55 PM 41.0 °F 33.5 °F 21.2 °F 45% 30.10 in 10.0 mi SSW 13.8 mph 18.4 mph N/A   Clear